This demonstration page uses our WeatherBlox Daily Observations layout. Learn more.

Left ArrowRight Arrow

Hourly Observations for July 28, 2015

Temp ( °F °C ) Dew Point ( °F °C ) Humidity (%) Winds ( mph kmh ) Pressure ( in mb ) Visibility ( mi km ) Precip ( " mm )
12:53 am 00:53 Clear 87 30.6 58 14.4 37 37 SSE 18 30 29.76 1008 10 16 0.00 0.00
1:53 am 01:53 Clear 85 29.4 59 15 42 42 S 13 20 29.77 1008 10 16 0.00 0.00
2:53 am 02:53 Clear 83 28.3 59 15 44 44 SSE 10 17 29.77 1008 10 16 0.00 0.00
3:53 am 03:53 Clear 81 27.2 60 15.6 49 49 SSE 12 19 29.76 1008 10 16 0.00 0.00
4:53 am 04:53 Clear 81 27.2 60 15.6 49 49 SE 12 19 29.75 1008 10 16 0.00 0.00
5:53 am 05:53 Clear 80 26.7 59 15 49 49 SE 10 17 29.76 1008 10 16 0.00 0.00
6:53 am 06:53 Clear 79 26.1 59 15 50 50 SE 13 20 29.78 1008 10 16 0.00 0.00
7:53 am 07:53 Sunny 79 26.1 62 16.7 56 56 SSE 15 24 29.80 1009 10 16 0.00 0.00
8:53 am 08:53 Sunny 82 27.8 64 17.8 55 55 SSE 15 24 29.81 1010 10 16 0.00 0.00
9:53 am 09:53 Sunny 87 30.6 63 17.2 45 45 SSE 10 17 29.81 1010 10 16 0.00 0.00
10:53 am 10:53 Sunny 91 32.8 60 15.6 35 35 S 10 17 29.80 1009 10 16 0.00 0.00
11:53 am 11:53 Sunny 95 35 58 14.4 29 29 SE 6 9 29.79 1009 10 16 0.00 0.00
12:53 pm 12:53 Sunny 98 36.7 58 14.4 26 26 S 12 19 29.78 1008 10 16 0.00 0.00
1:53 pm 13:53 Sunny 100 37.8 57 13.9 24 24 undefined N/A 29.75 1008 10 16 0.00 0.00
2:53 pm 14:53 Sunny 102 38.9 56 13.3 22 22 undefined N/A 29.75 1007 10 16 0.00 0.00
3:53 pm 15:53 Sunny 103 39.4 56 13.3 21 21 VRB 6 9 29.73 1007 10 16 0.00 0.00
4:53 pm 16:53 Mostly Sunny 103 39.4 56 13.3 21 21 E 9 15 29.70 1006 10 16 0.00 0.00
5:53 pm 17:53 Sunny 103 39.4 56 13.3 21 21 SE 12 19 29.69 1005 10 16 0.00 0.00
6:53 pm 18:53 Mostly Sunny 102 38.9 54 12.2 20 20 SE 9 15 29.69 1005 10 16 0.00 0.00
7:53 pm 19:53 Sunny 100 37.8 54 12.2 21 21 SE 16 26 29.70 1006 10 16 0.00 0.00
8:53 pm 20:53 Clear 96 35.6 56 13.3 26 26 SE 12 19 29.72 1007 10 16 0.00 0.00
9:53 pm 21:53 Clear 93 33.9 59 15 32 32 SE 13 20 29.77 1008 10 16 0.00 0.00
10:53 pm 22:53 Clear 91 32.8 59 15 34 34 SSE 13 20 29.80 1009 10 16 0.00 0.00
11:53 pm 23:53 Clear 89 31.7 60 15.6 38 38 SSE 16 26 29.81 1010 10 16 0.00 0.00

Powered by AerisWeather